When you browse on this site, cookies collect data to enhance your experience and personalize the content and advertising you see.
Visit our Privacy Policy to learn more. By continuing to use the site, you agree to this use of cookies and data.
  • In Hungary
  • List of Countries
  • For 7 days
  • Water Temperature
  • Satellite Maps
  • Weather Map
  • News
  • Weather Widgets
  • user-avatar
    Login

    Hourly Weather Loha

    Today, 16 December, Sunday

    Time Temperature Precipitation Wind Pressure Humidity
    00:00 +12°C° 0 mm 1 mps 585 mmHg 86%
    01:00 +12°C° 0 mm 1 mps 585 mmHg 86%
    02:00 +12°C° 0 mm 1 mps 585 mmHg 86%
    03:00 +12°C° 0 mm 1 mps 585 mmHg 86%
    04:00 +12°C° 0 mm 1 mps 585 mmHg 86%
    05:00 +12°C° 0 mm 1 mps 585 mmHg 84%
    06:00 +13°C° 0 mm 1 mps 585 mmHg 82%
    07:00 +13°C° 0 mm 1 mps 586 mmHg 80%
    08:00 +15°C° 0 mm 1 mps 587 mmHg 71%
    09:00 +19°C° 0 mm 1 mps 588 mmHg 62%
    10:00 +20°C° 0 mm 2 mps 589 mmHg 52%
    11:00 +22°C° 0 mm 1 mps 589 mmHg 49%
    12:00 +23°C° 0 mm 1 mps 589 mmHg 46%
    13:00 +24°C° 0 mm 1 mps 589 mmHg 43%
    14:00 +23°C° 0.1 mm 1 mps 588 mmHg 46%
    15:00 +21°C° 0.1 mm 2 mps 587 mmHg 50%
    16:00 +20°C° 0.1 mm 2 mps 586 mmHg 53%
    17:00 +19°C° 0.1 mm 1 mps 586 mmHg 62%
    18:00 +16°C° 0.1 mm 1 mps 585 mmHg 72%
    19:00 +13°C° 0.1 mm 0 mps 584 mmHg 81%
    20:00 +13°C° 0.1 mm 0 mps 584 mmHg 83%
    21:00 +12°C° 0.1 mm 0 mps 585 mmHg 85%
    22:00 +11°C° 0.1 mm 0 mps 585 mmHg 87%
    23:00 +11°C° 0.1 mm 0 mps 585 mmHg 87%

    Tomorrow, 17 December, Monday

    Time Temperature Precipitation Wind Pressure Humidity
    00:00 +12°C° 0.1 mm 1 mps 585 mmHg 87%
    01:00 +12°C° 0.1 mm 1 mps 585 mmHg 88%
    02:00 +12°C° 0.1 mm 1 mps 584 mmHg 88%
    03:00 +12°C° 0.1 mm 1 mps 584 mmHg 89%
    04:00 +11°C° 0.1 mm 1 mps 584 mmHg 89%
    05:00 +12°C° 0 mm 1 mps 584 mmHg 86%
    06:00 +13°C° 0 mm 1 mps 585 mmHg 83%
    07:00 +13°C° 0 mm 1 mps 585 mmHg 80%
    08:00 +16°C° 0 mm 1 mps 587 mmHg 69%
    09:00 +20°C° 0 mm 1 mps 588 mmHg 58%
    10:00 +22°C° 0 mm 1 mps 589 mmHg 47%
    11:00 +23°C° 0.1 mm 1 mps 589 mmHg 46%
    12:00 +23°C° 0.1 mm 1 mps 588 mmHg 46%
    13:00 +24°C° 0.1 mm 1 mps 588 mmHg 45%
    14:00 +23°C° 0.3 mm 2 mps 587 mmHg 48%
    15:00 +21°C° 0.3 mm 2 mps 586 mmHg 51%
    16:00 +21°C° 0.3 mm 2 mps 586 mmHg 54%
    17:00 +20°C° 0.5 mm 1 mps 585 mmHg 63%
    18:00 +18°C° 0.5 mm 1 mps 585 mmHg 72%
    19:00 +14°C° 0.5 mm 0 mps 584 mmHg 82%
    20:00 +13°C° 0.3 mm 0 mps 584 mmHg 85%
    21:00 +13°C° 0.3 mm 0 mps 585 mmHg 88%
    22:00 +12°C° 0.3 mm 0 mps 585 mmHg 91%
    23:00 +12°C° 0.3 mm 0 mps 585 mmHg 92%

    Day after tomorrow, 18 December, Tuesday

    Time Temperature Precipitation Wind Pressure Humidity
    00:00 +12°C° 0.3 mm 0 mps 585 mmHg 92%
    01:00 +12°C° 0.3 mm 0 mps 584 mmHg 93%
    02:00 +11°C° 0.3 mm 0 mps 584 mmHg 92%
    03:00 +11°C° 0.3 mm 0 mps 584 mmHg 92%
    04:00 +11°C° 0.3 mm 0 mps 583 mmHg 92%
    05:00 +12°C° 0.5 mm 0 mps 584 mmHg 89%
    06:00 +12°C° 0.5 mm 0 mps 585 mmHg 86%
    07:00 +13°C° 0.5 mm 0 mps 585 mmHg 83%
    08:00 +14°C° 0.4 mm 0 mps 586 mmHg 80%
    09:00 +15°C° 0.4 mm 0 mps 587 mmHg 76%
    10:00 +16°C° 0.4 mm 0 mps 587 mmHg 73%
    11:00 +18°C° 0.4 mm 1 mps 587 mmHg 71%
    12:00 +19°C° 0.4 mm 1 mps 587 mmHg 68%
    13:00 +19°C° 0.4 mm 1 mps 586 mmHg 66%
    14:00 +20°C° 0.4 mm 1 mps 586 mmHg 65%
    15:00 +20°C° 0.4 mm 1 mps 586 mmHg 64%
    16:00 +19°C° 0.4 mm 2 mps 585 mmHg 63%
    17:00 +19°C° 0.8 mm 1 mps 585 mmHg 72%
    18:00 +16°C° 0.8 mm 1 mps 585 mmHg 80%
    19:00 +14°C° 0.8 mm 1 mps 585 mmHg 89%
    20:00 +13°C° 0.9 mm 0 mps 585 mmHg 91%
    21:00 +13°C° 0.9 mm 0 mps 585 mmHg 93%
    22:00 +13°C° 0.9 mm 0 mps 586 mmHg 94%
    23:00 +13°C° 1.4 mm 0 mps 586 mmHg 94%

    19 December, Wednesday

    Time Temperature Precipitation Wind Pressure Humidity
    00:00 +13°C° 1.4 mm 0 mps 585 mmHg 94%
    01:00 +12°C° 1.4 mm 0 mps 585 mmHg 94%
    02:00 +12°C° 1.1 mm 0 mps 585 mmHg 94%
    03:00 +12°C° 1.1 mm 0 mps 584 mmHg 94%
    04:00 +12°C° 1.1 mm 0 mps 584 mmHg 94%
    05:00 +12°C° 0.8 mm 0 mps 584 mmHg 94%
    06:00 +12°C° 0.8 mm 0 mps 585 mmHg 94%
    07:00 +12°C° 0.8 mm 0 mps 585 mmHg 93%
    08:00 +13°C° 0.6 mm 0 mps 586 mmHg 89%
    09:00 +15°C° 0.6 mm 1 mps 586 mmHg 85%
    10:00 +15°C° 0.6 mm 1 mps 587 mmHg 81%
    11:00 +15°C° 0.8 mm 1 mps 586 mmHg 82%
    12:00 +15°C° 0.8 mm 1 mps 586 mmHg 82%
    13:00 +15°C° 0.8 mm 1 mps 585 mmHg 83%
    14:00 +15°C° 0.6 mm 1 mps 585 mmHg 80%
    15:00 +16°C° 0.6 mm 1 mps 584 mmHg 78%
    16:00 +16°C° 0.6 mm 1 mps 584 mmHg 76%
    17:00 +15°C° 0.4 mm 1 mps 584 mmHg 80%
    18:00 +13°C° 0.4 mm 0 mps 584 mmHg 85%
    19:00 +12°C° 0.4 mm 0 mps 584 mmHg 90%
    20:00 +12°C° 0.5 mm 0 mps 584 mmHg 91%
    21:00 +12°C° 0.5 mm 0 mps 585 mmHg 91%
    22:00 +11°C° 0.5 mm 0 mps 585 mmHg 91%
    23:00 +11°C° 0.4 mm 0 mps 585 mmHg 91%

    20 December, Thursday

    Time Temperature Precipitation Wind Pressure Humidity
    00:00 +11°C° 0.4 mm 0 mps 584 mmHg 91%
    01:00 +11°C° 0.4 mm 0 mps 584 mmHg 91%
    02:00 +11°C° 0.5 mm 0 mps 583 mmHg 91%
    03:00 +11°C° 0.5 mm 0 mps 583 mmHg 90%
    04:00 +11°C° 0.5 mm 0 mps 583 mmHg 89%
    05:00 +12°C° 0.2 mm 0 mps 584 mmHg 88%
    06:00 +12°C° 0.2 mm 0 mps 584 mmHg 86%
    07:00 +12°C° 0.2 mm 0 mps 585 mmHg 84%
    08:00 +14°C° 0.1 mm 0 mps 586 mmHg 80%
    09:00 +16°C° 0.1 mm 1 mps 586 mmHg 76%
    10:00 +18°C° 0.1 mm 1 mps 587 mmHg 71%
    11:00 +18°C° 0.3 mm 1 mps 587 mmHg 70%
    12:00 +19°C° 0.3 mm 1 mps 586 mmHg 69%
    13:00 +19°C° 0.3 mm 1 mps 586 mmHg 67%
    14:00 +19°C° 0.5 mm 1 mps 585 mmHg 70%
    15:00 +18°C° 0.5 mm 1 mps 585 mmHg 73%
    16:00 +16°C° 0.5 mm 1 mps 584 mmHg 75%
    17:00 +16°C° 0.3 mm 1 mps 584 mmHg 80%
    18:00 +14°C° 0.3 mm 0 mps 584 mmHg 84%
    19:00 +13°C° 0.3 mm 0 mps 584 mmHg 89%
    20:00 +12°C° 0.4 mm 0 mps 584 mmHg 89%
    21:00 +12°C° 0.4 mm 0 mps 585 mmHg 90%
    22:00 +12°C° 0.4 mm 0 mps 585 mmHg 90%
    23:00 +12°C° 0.3 mm 0 mps 585 mmHg 90%

    21 December, Friday

    Time Temperature Precipitation Wind Pressure Humidity
    00:00 +12°C° 0.3 mm 0 mps 584 mmHg 90%
    01:00 +12°C° 0.3 mm 0 mps 584 mmHg 90%
    02:00 +11°C° 0.1 mm 0 mps 584 mmHg 91%
    03:00 +11°C° 0.1 mm 0 mps 583 mmHg 92%
    04:00 +11°C° 0.1 mm 0 mps 583 mmHg 93%
    05:00 +11°C° 0.1 mm 0 mps 583 mmHg 90%
    06:00 +12°C° 0.1 mm 0 mps 584 mmHg 88%
    07:00 +12°C° 0.1 mm 0 mps 585 mmHg 85%
    08:00 +14°C° 0.2 mm 0 mps 586 mmHg 79%
    09:00 +16°C° 0.2 mm 1 mps 587 mmHg 73%
    10:00 +19°C° 0.2 mm 1 mps 587 mmHg 67%
    11:00 +19°C° 0.5 mm 1 mps 587 mmHg 67%
    12:00 +19°C° 0.5 mm 1 mps 587 mmHg 67%
    13:00 +19°C° 0.5 mm 1 mps 586 mmHg 68%
    14:00 +19°C° 0.8 mm 1 mps 586 mmHg 69%
    15:00 +19°C° 0.8 mm 1 mps 585 mmHg 71%
    16:00 +18°C° 0.8 mm 1 mps 585 mmHg 72%
    17:00 +16°C° 0.7 mm 1 mps 585 mmHg 78%
    18:00 +15°C° 0.7 mm 1 mps 584 mmHg 84%
    19:00 +14°C° 0.7 mm 1 mps 584 mmHg 89%
    20:00 +13°C° 0.7 mm 0 mps 585 mmHg 90%
    21:00 +12°C° 0.7 mm 0 mps 585 mmHg 92%
    22:00 +12°C° 0.7 mm 0 mps 585 mmHg 93%
    23:00 +12°C° 0.4 mm 0 mps 585 mmHg 92%
    Show more